Time,TemperatureF,DewpointF,PressureIn,WindDirection,WindDirectionDegrees,WindSpeedMPH,WindSpeedGustMPH,Humidity,HourlyPrecipIn,Conditions,Clouds,dailyrainin,SolarRadiationWatts/m^2,SoftwareType,DateUTC
2013-01-18 00:02:00,33.0,29.0,-100.00,NW,310,0.0,3.0,86,0.00,,,0.00,0.000000,,2013-01-18 06:02:00,
2013-01-18 00:33:00,33.0,29.0,-100.00,NW,310,0.0,3.0,86,0.00,,,0.00,0.000000,,2013-01-18 06:33:00,
2013-01-18 00:43:00,33.0,29.0,-100.00,NW,310,0.0,3.0,86,0.00,,,0.00,0.000000,,2013-01-18 06:43:00,
2013-01-18 00:53:00,33.0,29.0,-100.00,NW,310,0.0,3.0,86,0.00,,,0.00,0.000000,,2013-01-18 06:53:00,
2013-01-18 01:02:00,31.0,28.0,-100.00,WNW,295,1.0,2.0,88,0.00,,,0.00,0.000000,,2013-01-18 07:02:00,
2013-01-18 01:33:00,31.0,28.0,-100.00,WNW,295,1.0,2.0,88,0.00,,,0.00,0.000000,,2013-01-18 07:33:00,
2013-01-18 01:42:00,31.0,28.0,-100.00,WNW,295,1.0,2.0,88,0.00,,,0.00,0.000000,,2013-01-18 07:42:00,
2013-01-18 01:52:00,31.0,28.0,-100.00,WNW,295,1.0,2.0,88,0.00,,,0.00,0.000000,,2013-01-18 07:52:00,
2013-01-18 02:02:00,30.0,27.0,-100.00,NNW,345,0.0,2.0,89,0.00,,,0.00,0.000000,,2013-01-18 08:02:00,
2013-01-18 02:22:00,30.0,27.0,-100.00,NNW,345,0.0,2.0,89,0.00,,,0.00,0.000000,,2013-01-18 08:22:00,
2013-01-18 02:33:00,30.0,27.0,-100.00,NNW,345,0.0,2.0,89,0.00,,,0.00,0.000000,,2013-01-18 08:33:00,
2013-01-18 02:43:00,30.0,27.0,-100.00,NNW,345,0.0,2.0,89,0.00,,,0.00,0.000000,,2013-01-18 08:43:00,
2013-01-18 02:53:00,30.0,27.0,-100.00,NNW,345,0.0,2.0,89,0.00,,,0.00,0.000000,,2013-01-18 08:53:00,
2013-01-18 03:02:00,29.0,26.0,-100.00,SE,126,1.0,2.0,90,0.00,,,0.00,0.000000,,2013-01-18 09:02:00,
2013-01-18 03:22:00,29.0,26.0,-100.00,SE,126,1.0,2.0,90,0.00,,,0.00,0.000000,,2013-01-18 09:22:00,
2013-01-18 03:33:00,29.0,26.0,-100.00,SE,126,1.0,2.0,90,0.00,,,0.00,0.000000,,2013-01-18 09:33:00,
2013-01-18 03:43:00,29.0,26.0,-100.00,SE,126,1.0,2.0,90,0.00,,,0.00,0.000000,,2013-01-18 09:43:00,
2013-01-18 03:53:00,29.0,26.0,-100.00,SE,126,1.0,2.0,90,0.00,,,0.00,0.000000,,2013-01-18 09:53:00,
2013-01-18 04:02:00,29.0,27.0,-100.00,WSW,237,1.0,2.0,91,0.00,,,0.00,0.000000,,2013-01-18 10:02:00,
2013-01-18 04:22:00,29.0,27.0,-100.00,WSW,237,1.0,2.0,91,0.00,,,0.00,0.000000,,2013-01-18 10:22:00,
2013-01-18 04:33:00,29.0,27.0,-100.00,WSW,237,1.0,2.0,91,0.00,,,0.00,0.000000,,2013-01-18 10:33:00,
2013-01-18 04:43:00,29.0,27.0,-100.00,WSW,237,1.0,2.0,91,0.00,,,0.00,0.000000,,2013-01-18 10:43:00,
2013-01-18 04:53:00,29.0,27.0,-100.00,WSW,237,1.0,2.0,91,0.00,,,0.00,0.000000,,2013-01-18 10:53:00,
2013-01-18 05:02:00,28.0,25.0,-100.00,ENE,63,0.0,2.0,90,0.00,,,0.00,0.000000,,2013-01-18 11:02:00,
2013-01-18 05:23:00,28.0,25.0,-100.00,ENE,63,0.0,2.0,90,0.00,,,0.00,0.000000,,2013-01-18 11:23:00,
2013-01-18 05:33:00,28.0,25.0,-100.00,ENE,63,0.0,2.0,90,0.00,,,0.00,0.000000,,2013-01-18 11:33:00,
2013-01-18 05:42:00,28.0,25.0,-100.00,ENE,63,0.0,2.0,90,0.00,,,0.00,0.000000,,2013-01-18 11:42:00,
2013-01-18 05:53:00,28.0,25.0,-100.00,ENE,63,0.0,2.0,90,0.00,,,0.00,0.000000,,2013-01-18 11:53:00,
2013-01-18 06:02:00,29.0,27.0,-100.00,East,98,1.0,2.0,91,0.00,,,0.00,0.000000,,2013-01-18 12:02:00,
2013-01-18 06:33:00,29.0,27.0,-100.00,East,98,1.0,2.0,91,0.00,,,0.00,0.000000,,2013-01-18 12:33:00,
2013-01-18 06:43:00,29.0,27.0,-100.00,East,98,1.0,2.0,91,0.00,,,0.00,0.000000,,2013-01-18 12:43:00,
2013-01-18 06:53:00,29.0,27.0,-100.00,East,98,1.0,2.0,91,0.00,,,0.00,0.000000,,2013-01-18 12:53:00,
2013-01-18 07:02:00,29.0,26.0,-100.00,ESE,102,1.0,2.0,90,0.00,,,0.00,0.000000,,2013-01-18 13:02:00,
2013-01-18 07:33:00,29.0,26.0,-100.00,ESE,102,1.0,2.0,90,0.00,,,0.00,0.000000,,2013-01-18 13:33:00,
2013-01-18 07:43:00,29.0,26.0,-100.00,ESE,102,1.0,2.0,90,0.00,,,0.00,0.000000,,2013-01-18 13:43:00,
2013-01-18 07:53:00,29.0,26.0,-100.00,ESE,102,1.0,2.0,90,0.00,,,0.00,0.000000,,2013-01-18 13:53:00,
2013-01-18 08:02:00,29.0,26.0,-100.00,East,100,2.0,2.0,90,0.00,,,0.00,11.000000,,2013-01-18 14:02:00,
2013-01-18 08:34:00,29.0,26.0,-100.00,East,100,2.0,2.0,90,0.00,,,0.00,11.000000,,2013-01-18 14:34:00,
2013-01-18 08:43:00,29.0,26.0,-100.00,East,100,2.0,2.0,90,0.00,,,0.00,11.000000,,2013-01-18 14:43:00,
2013-01-18 08:53:00,29.0,26.0,-100.00,East,100,2.0,2.0,90,0.00,,,0.00,11.000000,,2013-01-18 14:53:00,
2013-01-18 09:02:00,40.0,31.0,-100.00,East,86,3.0,4.0,70,0.00,,,0.00,199.000000,,2013-01-18 15:02:00,
2013-01-18 09:34:00,40.0,31.0,-100.00,East,86,3.0,4.0,70,0.00,,,0.00,199.000000,,2013-01-18 15:34:00,
2013-01-18 09:43:00,40.0,31.0,-100.00,East,86,3.0,4.0,70,0.00,,,0.00,199.000000,,2013-01-18 15:43:00,
2013-01-18 09:53:00,40.0,31.0,-100.00,East,86,3.0,4.0,70,0.00,,,0.00,199.000000,,2013-01-18 15:53:00,
2013-01-18 10:02:00,45.0,30.0,-100.00,ESE,120,4.0,8.0,56,0.00,,,0.00,402.000000,,2013-01-18 16:02:00,
2013-01-18 10:23:00,45.0,30.0,-100.00,ESE,120,4.0,8.0,56,0.00,,,0.00,402.000000,,2013-01-18 16:23:00,
2013-01-18 10:33:00,45.0,30.0,-100.00,ESE,120,4.0,8.0,56,0.00,,,0.00,402.000000,,2013-01-18 16:33:00,
2013-01-18 10:43:00,45.0,30.0,-100.00,ESE,120,4.0,8.0,56,0.00,,,0.00,402.000000,,2013-01-18 16:43:00,
2013-01-18 10:53:00,45.0,30.0,-100.00,ESE,120,4.0,8.0,56,0.00,,,0.00,402.000000,,2013-01-18 16:53:00,
2013-01-18 11:02:00,48.0,27.0,-100.00,SE,136,4.0,10.0,44,0.00,,,0.00,566.000000,,2013-01-18 17:02:00,
2013-01-18 11:34:00,48.0,27.0,-100.00,SE,136,4.0,10.0,44,0.00,,,0.00,566.000000,,2013-01-18 17:34:00,
2013-01-18 11:43:00,48.0,27.0,-100.00,SE,136,4.0,10.0,44,0.00,,,0.00,566.000000,,2013-01-18 17:43:00,
2013-01-18 11:53:00,48.0,27.0,-100.00,SE,136,4.0,10.0,44,0.00,,,0.00,566.000000,,2013-01-18 17:53:00,
2013-01-18 12:02:00,52.0,25.0,-100.00,SSE,160,5.0,10.0,35,0.00,,,0.00,673.000000,,2013-01-18 18:02:00,
2013-01-18 12:33:00,52.0,25.0,-100.00,SSE,160,5.0,10.0,35,0.00,,,0.00,673.000000,,2013-01-18 18:33:00,
2013-01-18 12:43:00,52.0,25.0,-100.00,SSE,160,5.0,10.0,35,0.00,,,0.00,673.000000,,2013-01-18 18:43:00,
2013-01-18 12:53:00,52.0,25.0,-100.00,SSE,160,5.0,10.0,35,0.00,,,0.00,673.000000,,2013-01-18 18:53:00,
2013-01-18 13:02:00,56.0,26.0,-100.00,SE,135,4.0,9.0,31,0.00,,,-99.99,707.000000,,2013-01-18 19:02:00,
2013-01-18 13:33:00,56.0,26.0,-100.00,SE,135,4.0,9.0,31,0.00,,,-99.99,707.000000,,2013-01-18 19:33:00,
2013-01-18 13:43:00,56.0,26.0,-100.00,SE,135,4.0,9.0,31,0.00,,,-99.99,707.000000,,2013-01-18 19:43:00,
2013-01-18 13:53:00,56.0,26.0,-100.00,SE,135,4.0,9.0,31,0.00,,,-99.99,707.000000,,2013-01-18 19:53:00,
2013-01-18 14:02:00,57.0,26.0,-100.00,South,181,4.0,11.0,30,0.00,,,-99.99,595.000000,,2013-01-18 20:02:00,
2013-01-18 14:33:00,57.0,26.0,-100.00,South,181,4.0,11.0,30,0.00,,,-99.99,595.000000,,2013-01-18 20:33:00,
2013-01-18 14:43:00,57.0,26.0,-100.00,South,181,4.0,11.0,30,0.00,,,-99.99,595.000000,,2013-01-18 20:43:00,
2013-01-18 14:53:00,57.0,26.0,-100.00,South,181,4.0,11.0,30,0.00,,,-99.99,595.000000,,2013-01-18 20:53:00,
2013-01-18 15:02:00,59.0,26.0,-100.00,South,170,4.0,10.0,28,0.00,,,0.00,429.000000,,2013-01-18 21:02:00,
2013-01-18 15:33:00,59.0,26.0,-100.00,South,170,4.0,10.0,28,0.00,,,0.00,429.000000,,2013-01-18 21:33:00,
2013-01-18 15:43:00,59.0,26.0,-100.00,South,170,4.0,10.0,28,0.00,,,0.00,429.000000,,2013-01-18 21:43:00,
2013-01-18 15:53:00,59.0,26.0,-100.00,South,170,4.0,10.0,28,0.00,,,0.00,429.000000,,2013-01-18 21:53:00,
2013-01-18 16:02:00,58.0,23.0,-100.00,SSE,158,5.0,10.0,26,0.00,,,0.00,388.000000,,2013-01-18 22:02:00,
2013-01-18 16:33:00,58.0,23.0,-100.00,SSE,158,5.0,10.0,26,0.00,,,0.00,388.000000,,2013-01-18 22:33:00,
2013-01-18 16:43:00,58.0,23.0,-100.00,SSE,158,5.0,10.0,26,0.00,,,0.00,388.000000,,2013-01-18 22:43:00,
2013-01-18 16:53:00,58.0,23.0,-100.00,SSE,158,5.0,10.0,26,0.00,,,0.00,388.000000,,2013-01-18 22:53:00,
2013-01-18 17:02:00,56.0,25.0,-100.00,SSE,148,3.0,7.0,30,0.00,,,0.00,125.000000,,2013-01-18 23:02:00,
2013-01-18 17:23:00,56.0,25.0,-100.00,SSE,148,3.0,7.0,30,0.00,,,0.00,125.000000,,2013-01-18 23:23:00,
2013-01-18 17:33:00,56.0,25.0,-100.00,SSE,148,3.0,7.0,30,0.00,,,0.00,125.000000,,2013-01-18 23:33:00,
2013-01-18 17:43:00,56.0,25.0,-100.00,SSE,148,3.0,7.0,30,0.00,,,0.00,125.000000,,2013-01-18 23:43:00,
2013-01-18 17:53:00,56.0,25.0,-100.00,SSE,148,3.0,7.0,30,0.00,,,0.00,125.000000,,2013-01-18 23:53:00,
2013-01-18 18:02:00,48.0,27.0,-100.00,SE,127,2.0,7.0,43,0.00,,,0.00,9.000000,,2013-01-19 00:02:00,
2013-01-18 18:23:00,48.0,27.0,-100.00,SE,127,2.0,7.0,43,0.00,,,0.00,9.000000,,2013-01-19 00:23:00,
2013-01-18 18:33:00,48.0,27.0,-100.00,SE,127,2.0,7.0,43,0.00,,,0.00,9.000000,,2013-01-19 00:33:00,
2013-01-18 18:43:00,48.0,27.0,-100.00,SE,127,2.0,7.0,43,0.00,,,0.00,9.000000,,2013-01-19 00:43:00,
2013-01-18 18:53:00,48.0,27.0,-100.00,SE,127,2.0,7.0,43,0.00,,,0.00,9.000000,,2013-01-19 00:53:00,
2013-01-18 19:02:00,43.0,28.0,-100.00,SE,127,2.0,3.0,55,0.00,,,0.00,0.000000,,2013-01-19 01:02:00,
2013-01-18 19:23:00,43.0,28.0,-100.00,SE,127,2.0,3.0,55,0.00,,,0.00,0.000000,,2013-01-19 01:23:00,
2013-01-18 19:33:00,43.0,28.0,-100.00,SE,127,2.0,3.0,55,0.00,,,0.00,0.000000,,2013-01-19 01:33:00,
2013-01-18 19:43:00,43.0,28.0,-100.00,SE,127,2.0,3.0,55,0.00,,,0.00,0.000000,,2013-01-19 01:43:00,
2013-01-18 19:53:00,43.0,28.0,-100.00,SE,127,2.0,3.0,55,0.00,,,0.00,0.000000,,2013-01-19 01:53:00,
2013-01-18 20:02:00,39.0,29.0,-100.00,ENE,64,2.0,3.0,67,0.00,,,0.00,0.000000,,2013-01-19 02:02:00,
2013-01-18 20:33:00,39.0,29.0,-100.00,ENE,64,2.0,3.0,67,0.00,,,0.00,0.000000,,2013-01-19 02:33:00,
2013-01-18 20:43:00,39.0,29.0,-100.00,ENE,64,2.0,3.0,67,0.00,,,0.00,0.000000,,2013-01-19 02:43:00,
2013-01-18 20:53:00,39.0,29.0,-100.00,ENE,64,2.0,3.0,67,0.00,,,0.00,0.000000,,2013-01-19 02:53:00,
2013-01-18 21:02:00,40.0,28.0,-100.00,East,84,2.0,3.0,62,0.00,,,0.00,0.000000,,2013-01-19 03:02:00,
2013-01-18 21:33:00,40.0,28.0,-100.00,East,84,2.0,3.0,62,0.00,,,0.00,0.000000,,2013-01-19 03:33:00,
2013-01-18 21:44:00,40.0,28.0,-100.00,East,84,2.0,3.0,62,0.00,,,0.00,0.000000,,2013-01-19 03:44:00,
2013-01-18 21:53:00,40.0,28.0,-100.00,East,84,2.0,3.0,62,0.00,,,0.00,0.000000,,2013-01-19 03:53:00,
2013-01-18 22:02:00,39.0,27.0,-100.00,ENE,75,2.0,3.0,61,0.00,,,0.00,0.000000,,2013-01-19 04:02:00,
2013-01-18 22:33:00,39.0,27.0,-100.00,ENE,75,2.0,3.0,61,0.00,,,0.00,0.000000,,2013-01-19 04:33:00,
2013-01-18 22:43:00,39.0,27.0,-100.00,ENE,75,2.0,3.0,61,0.00,,,0.00,0.000000,,2013-01-19 04:43:00,
2013-01-18 22:53:00,39.0,27.0,-100.00,ENE,75,2.0,3.0,61,0.00,,,0.00,0.000000,,2013-01-19 04:53:00,
2013-01-18 23:02:00,38.0,27.0,-100.00,East,83,2.0,4.0,64,0.00,,,0.00,0.000000,,2013-01-19 05:02:00,
2013-01-18 23:23:00,38.0,27.0,-100.00,East,83,2.0,4.0,64,0.00,,,0.00,0.000000,,2013-01-19 05:23:00,
2013-01-18 23:33:00,38.0,27.0,-100.00,East,83,2.0,4.0,64,0.00,,,0.00,0.000000,,2013-01-19 05:33:00,
2013-01-18 23:43:00,38.0,27.0,-100.00,East,83,2.0,4.0,64,0.00,,,0.00,0.000000,,2013-01-19 05:43:00,
2013-01-18 23:53:00,38.0,27.0,-100.00,East,83,2.0,4.0,64,0.00,,,0.00,0.000000,,2013-01-19 05:53:00,